Preview of NWS' New Version of Forecast
This preview is not operational and should not be used for support decisions.

Regional Weather Roundup (RWR)

Issued by Gray - Portland, ME (GYX)

                            
000
ASUS41 KGYX 242110
RWRGYX
WEATHER ROUNDUP FOR MAINE AND NEW HAMPSHIRE
NATIONAL WEATHER SERVICE GRAY ME
500 PM EDT FRI MAY 24 2019

MEZ002-005-006-010-012-015-018-020-021-024-026-027-029-242200-
MAINE
  
CITY           SKY/WX    TMP DP  RH WIND       PRES   REMARKS
PORTLAND       PTSUNNY   61  45  55 N16G24    29.95R                  
SANFORD        CLOUDY    62  46  55 NE16G22   29.96R                  
BAR HARBOR     CLOUDY    54  46  74 N12       29.92R                  
WISCASSET      CLOUDY    59  45  59 VRB5      29.95R                  
ROCKLAND       CLOUDY    54  47  77 NE8       29.94R                  
FRYEBURG       CLOUDY    61  45  55 N7        29.98R                  
LEWISTONAUBURN CLOUDY    60  45  57 N16G25    29.96R                  
AUGUSTA        CLOUDY    58  46  64 N13G20    29.96R                  
WATERVILLE     CLOUDY    57  45  64 NE14G23   29.94R                  
BANGOR         CLOUDY    58  44  60 NE13G23   29.95R                  
GREENVILLE       N/A     58  41  53 NE16G23   29.95R                  
MILLINOCKET    FAIR      61  41  47 NE8       29.95R                  
HOULTON        FAIR      62  35  36 NE10G17   29.91R                  
PRESQUE ISLE   FAIR      64  39  39 NE9       29.93S                  
FRENCHVILLE    PTSUNNY   66  40  38 N14G22    29.93R                  
CARIBOU        FAIR      67  35  30 N9        29.91S                  
$$

NHZ002-005-008-009-011-012-014-242200-
NEW HAMPSHIRE
  
CITY           SKY/WX    TMP DP  RH WIND       PRES   REMARKS
PORTSMOUTH     PTSUNNY   63  44  50 N16G26    29.94R                  
ROCHESTER      CLOUDY    61  44  53 N10       29.96R                  
NASHUA         PTSUNNY   66  49  54 NW16G26   29.96R                  
MANCHESTER     PTSUNNY   66  46  48 NW20      29.95R                  
CONCORD        CLOUDY    63  46  54 NW15G24   29.97R                  
LACONIA        CLOUDY    60  47  61 N9        29.98R                  
PLYMOUTH       CLOUDY    60  47  61 CALM      30.00R                  
BERLIN         CLOUDY    59  43  55 N12       30.00R                  
WHITEFIELD     CLOUDY    56  44  64 NW8       30.01R                  
JAFFREY        CLOUDY    63  45  51 N16G24    29.98R                  
KEENE          CLOUDY    64  48  56 N20G25    29.98R                  
LEBANON        CLOUDY    60  46  59 N9G18     30.02R                  
MT WASHINGTON  FOG       32  32 100 N28         N/A  VSB 1/16WCI  18  
$$

VTZ005-007-008-242200-
VERMONT
  
CITY           SKY/WX    TMP DP  RH WIND       PRES   REMARKS
ST JOHNSBURY     N/A     59  46  62 MISG      30.02R                  
MONTPELIER     PTSUNNY   57  48  72 NW8       30.08R                  
BURLINGTON     CLOUDY    60  49  66 N9        30.06R                  
$$

MAZ007-012-024-CTZ003-RIZ002-NYZ038-NYZ072-242200-
SOUTHERN NEW ENGLAND AND NY
  
CITY           SKY/WX    TMP DP  RH WIND       PRES   REMARKS
BOSTON         PTSUNNY   65  47  52 N18       29.93R                  
WORCESTER      CLOUDY    65  48  54 NW17G28   29.94R                  
NANTUCKET      CLOUDY    57  47  69 N28G38    29.87R                  
PROVIDENCE     CLOUDY    65  49  56 E15       29.91R                  
HARTFORD       PTSUNNY   73  50  44 N18G33    29.94R                  
ALBANY         PTSUNNY   66  52  60 NW16G28   30.02R                  
NEW YORK CITY  PTSUNNY   72  50  45 NW18G30   29.96R                  
$$

ANZ081-ANZ082-ANZ150-NHZ014-MEZ023>029-242200-
COASTAL MARINE OBSERVATIONS
  
STATION/POSITION TIME  TEMP    WIND        PRES    WAVE
                       AIR SEA DIR/SP/G            HT/PER
                 (UTC) (F)     (DEG/KT/KT) (MB)    (FT/S)
ISLE OF SHOALS   2000   57      20/ 23/ 26 1012.1R
JEFFREYS LEDGE   2038      47                N/A     5/ 6
GEORGES BANK BUO 2050   47 44  300/ 16/ 19 1003.5R   7/ 8
$$

.............KEY..............
   WCI - WIND CHILL
   TC  - TEMPERATURE IN CELSIUS
   VSB - VISIBILITY IN MILES
   HX  - HEAT INDEX
   FAIR- INDICATES FEW OR NO CLOUDS BELOW 12,000 FT, WITH NO 
         SIGNIFICANT WEATHER AND/OR OBSTRUCTIONS TO VISIBILITY.